Regional Weather Roundup
Issued by NWS

Home | Current Version | Previous Version | Text Only | Print | Product List | Glossary Off
Versions: 1 2 3 4 5 6 7 8 9 10 11 12 13 14 15 16 17 18 19 20 21 22 23 24 25 26 27 28 29 30 31 32 33 34 35 36 37 38 39 40 41 42 43 44 45 46 47 48 49 50

000
ASUS45 KSLC 202310
RWRUT

UTAH REGIONAL WEATHER ROUNDUP
NATIONAL WEATHER SERVICE SALT LAKE CITY UT
500 PM MDT MON OCT 20 2014

UTZ001>011-023>025-210000-

NORTHERN UTAH

CITY           SKY/WX    TMP DP  RH WIND       PRES   REMARKS
BRIGHAM CITY   SUNNY     74  32  21 CALM      29.95F
HILL AFB       SUNNY     74  37  25 VRB2      29.97F
LOGAN          SUNNY     74  35  24 SE5       29.96F
OGDEN          SUNNY     75  36  24 SW6       29.95F
PROVO AIRPORT  MOSUNNY   75  37  25 CALM      29.97F
SALT LAKE CITY MOSUNNY   77  34  21 S14       29.92F
VERNAL         SUNNY     69  38  32 SW6       30.07F
WENDOVER       SUNNY     66  36  32 CALM      29.93F
HEBER CITY     CLOUDY    73  34  23 E12       30.01F
WEST JORDAN    MOSUNNY   73  46  38 SE7       29.96F

$$

UTZ012>022-026-027-210000-

SOUTHERN/CENTRAL UTAH

CITY           SKY/WX    TMP DP  RH WIND       PRES   REMARKS
BLANDING       SUNNY     69  37  31 CALM      30.18F
BRYCE CANYON   SUNNY     60  38  43 SE9       30.18F
CEDAR CITY     CLOUDY    73  36  25 S12G20    30.02F
DELTA          SUNNY     75  35  22 CALM      29.97F
HANKSVILLE       N/A     75  37  25 SE9       30.03F
MILFORD        SUNNY     76  38  25 S15       29.98F
MOAB/CYNLANDS  MOSUNNY   76  38  25 N5        30.01F
PRICE          SUNNY     68  35  29 VRB5      30.10F
ST GEORGE      PTCLDY    84  39  20 SE7       29.89F
KANAB            N/A     73  37  27 NE7       30.05F

$$

REGIONAL REPORTS     COLORADO/ARIZONA

CITY           SKY/WX    TMP DP  RH WIND       PRES   REMARKS
CRAIG, CO      PTSUNNY   67  39  35 W10       30.12F
GRAND JUNCTION SUNNY     71  40  32 W9        30.05F
RIFLE          MOSUNNY   71  36  27 NW5       30.08F
MONTROSE       CLOUDY    69  35  28 SW16G23   30.11F
CORTEZ         MOSUNNY   70  39  32 S8        30.12S
PAGE, AZ       NOT AVBL
GRAND CANYON   PTSUNNY   64  38  38 NE9       30.13F
KINGMAN          N/A     80  44  27 SW12      29.95F
FLAGSTAFF      PTSUNNY   60  40  47 SW8       30.16F

$$

REGIONAL REPORTS    NEVADA/IDAHO/WYOMING

CITY           SKY/WX    TMP DP  RH WIND       PRES   REMARKS
LAS VEGAS, NV  MOSUNNY   87  40  19 SE10      29.80F
ELY            PTSUNNY   71  29  21 S20G26    30.01F
ELKO           MOSUNNY   76  25  15 S15G23    29.86F
POCATELLO, ID  MOSUNNY   76  34  21 S17       29.92F
BURLEY         SUNNY     77  33  20 S16       29.85F
EVANSTON, WY   MOSUNNY   64  31  28 SW14      30.10F
ROCK SPRINGS   MOSUNNY   67  27  22 VRB5      30.10F
KEMMERER       PTSUNNY   66  28  24 SW9G17    30.12F

$$


USA.gov is the U.S. government's official web portal to all federal, state and local government web resources and services.